Weather Roundup
Issued by NWS Springfield, MO

Home | Current Version | Previous Version | Text Only | Print | Product List | Glossary On
Versions: 1 2 3 4 5 6 7 8 9 10 11 12 13 14 15 16 17 18 19 20 21 22 23 24 25 26 27 28 29 30 31 32 33 34 35 36 37 38 39 40 41 42 43 44 45 46 47 48 49 50
000
NZUS99 KSGF 161607
HRRSGF

HOURLY WEATHER
NATIONAL WEATHER SERVICE SPRINGFIELD MO
1100 AM CDT TUE SEP 16 2014

......SGF CWA......

CITY           SKY/WX    TMP DP  RH WIND       PRES   REMARKS
SPRINGFIELD    CLOUDY    66  58  75 NE9       30.18F
JOPLIN         CLOUDY    61  59  93 NE7       30.20F FOG
WEST PLAINS    CLOUDY    65  57  75 E9        30.20F
ROLLA          CLOUDY    58  55  90 E3        30.21S
OSAGE BEACH    CLOUDY    61  54  77 E7        30.22F
BRANSON        CLOUDY    66  61  82 E5        30.19S

......SURROUNDING SGF CWA......

CITY           SKY/WX    TMP DP  RH WIND       PRES   REMARKS
CHANUTE        CLOUDY    66  57  72 NE7       30.21S
PARSONS        CLOUDY    63  55  75 VRB5      30.21F
COFFEYVILLE    CLOUDY    62  57  83 NE9       30.19F
EMPORIA        SUNNY     62  51  67 E8        30.21F
GROVE OK       CLOUDY    68  68 100 N6        30.17F
ROGERS AR      CLOUDY    68  65  90 NE3       30.18S FOG
SILOAM SPRINGS CLOUDY    72  64  78 N3        30.17F
HARRISON AR    CLOUDY    64  64 100 NE5       30.18F FOG
NEAR YELLVILLE CLOUDY    66  57  72 NE5       30.18S

......KANSAS AND MISSOURI......

CITY           SKY/WX    TMP DP  RH WIND       PRES   REMARKS
KANSAS CTY INT MOSUNNY   60  51  72 SE5       30.23F
DOWNTOWN KC    SUNNY     62  50  64 VRB3      30.22F
COLUMBIA       MOSUNNY   62  52  69 CALM      30.23F
SEDALIA        CLOUDY    61  53  75 E6        30.23F
ST JOSEPH      SUNNY     60  49  66 E8        30.24F
ST LOUIS       CLOUDY    61  54  77 N5        30.22F
SPIRIT OF STL  CLOUDY    61  54  77 NE5       30.22S HAZE
KIRKSVILLE     MOSUNNY   59  47  64 E6        30.24F
WICHITA        CLOUDY    64  52  64 E6        30.20F
TOPEKA         SUNNY     62  52  69 VRB3      30.23F
OLATHE         MOSUNNY   59  52  77 VRB5      30.22F

......TENNESSEE......

CITY           SKY/WX    TMP DP  RH WIND       PRES   REMARKS
MEMPHIS        CLOUDY    72  66  81 NE6       30.13F
NASHVILLE      CLOUDY    69  64  84 N9        30.14S

......ARKANSAS.......

CITY           SKY/WX    TMP DP  RH WIND       PRES   REMARKS
FAYETTEVILLE   CLOUDY    74  69  85 NW5       30.16F
FT SMITH       CLOUDY    79  68  69 CALM      30.13F
LITTLE ROCK    CLOUDY    77  67  71 NE7       30.13F

......OKLAHOMA.......

CITY           SKY/WX    TMP DP  RH WIND       PRES   REMARKS
TULSA          CLOUDY    68  61  78 N8        30.15F
PONCA CITY     CLOUDY    64  58  80 E9        30.18F
MCALESTER      MOSUNNY   80  70  71 SW5       30.15F
OKLAHOMA CITY  CLOUDY    79  69  71 CALM      30.15F

......IOWA............

CITY           SKY/WX    TMP DP  RH WIND       PRES   REMARKS
DES MOINES     MOSUNNY   60  47  61 S6        30.23F
QUAD CITIES    SUNNY     60  45  57 CALM      30.24F

......ILLINOIS........

CITY           SKY/WX    TMP DP  RH WIND       PRES   REMARKS
QUINCY         MOSUNNY   59  46  62 E5        30.23F
CHICAGO        MOSUNNY   59  40  49 VRB3      30.20F



USA.gov is the U.S. government's official web portal to all federal, state and local government web resources and services.